Simultaneous Nadir Overpasses (SNOs) Predictions

Prediction of SNOs between AQUA and NPP Satellite Orbit:

Table of predicted SNOs for the next 14.0 days since TLE Epoch: 9/7/2018
Index Date (AQUA) Time (AQUA) Lat,Lon (AQUA) SZA (AQUA ) Date (NPP) Time (NPP) Lat,Lon (NPP) SZA (NPP ) Distance(km) Time Diff (sec)
1 09/08/2018 14:06:01 74.83,-155.69 92.95 09/08/2018 14:05:25 74.83,-155.64 92.97 1.67 36
2 09/08/2018 14:55:07 -75.87, 14.83 88.21 09/08/2018 14:55:49 -75.87, 14.83 88.24 0.18 42
3 09/11/2018 06:22:18 75.28, -38.59 93.38 09/11/2018 06:22:12 75.29, -38.54 93.37 1.58 6
4 09/11/2018 07:11:25 -76.27, 131.96 87.72 09/11/2018 07:12:37 -76.26, 131.96 87.78 0.14 72
5 09/13/2018 21:49:39 -74.22, -93.02 84.53 09/13/2018 21:48:47 -74.22, -93.04 84.48 0.66 52
6 09/13/2018 22:38:35 75.73, 78.57 93.83 09/13/2018 22:38:59 75.74, 78.63 93.79 1.76 24
7 09/16/2018 14:05:54 -74.74, 24.11 84.14 09/16/2018 14:05:32 -74.73, 24.08 84.11 1.05 22
8 09/16/2018 14:54:52 76.13,-164.35 94.34 09/16/2018 14:55:46 76.13,-164.27 94.28 2.17 54
9 09/19/2018 05:33:05 74.11, -29.15 97.49 09/19/2018 05:31:55 74.12, -29.07 97.53 2.50 70
10 09/19/2018 06:22:11 -75.19, 141.19 83.67 09/19/2018 06:22:19 -75.19, 141.15 83.67 1.23 8




NCC Satellite Simultaneous Nadir Overpasses (SNOs) Prediction Service
